This demonstration page uses our WeatherBlox Daily Observations layout. Learn more.

Hourly Observations for February 11, 2020

Temp ( °F °C ) Dew Point ( °F °C ) Humidity (%) Winds ( mph kmh ) Pressure ( in mb ) Visibility ( mi km ) Precip ( " mm )
12:15 am 00:15 Partly Cloudy 30 -1.1 21 -6 70 70 N 6 9 30.39 1029 10 16.0934 0 0
12:35 am 00:35 Mostly Cloudy 30 -1.3 21 -6 71 71 N 6 9 30.39 1029 10 16.0934 0 0
12:55 am 00:55 Cloudy 29 -1.6 21 -6 72 72 NNW 5 7 30.39 1029 10 16.0934 0 0
1:15 am 01:15 Mostly Cloudy 29 -1.8 21 -6.1 73 73 NNW 7 11 30.39 1029 10 16.0934 0 0
1:35 am 01:35 Partly Cloudy 28 -2 20 -6.5 72 72 NNW 6 9 30.4 1029 10 16.0934 0 0
1:55 am 01:55 Partly Cloudy 27 -2.6 20 -6.5 75 75 NNW 7 11 30.39 1029 10 16.0934 0 0
2:15 am 02:15 Partly Cloudy 28 -2.4 19 -7 71 71 NNW 6 9 30.4 1029 10 16.0934 0 0
2:35 am 02:35 Mostly Cloudy 27 -2.8 19 -7.1 73 73 NNW 5 7 30.4 1030 10 16.0934 0 0
2:55 am 02:55 Partly Cloudy 27 -2.8 19 -7.2 72 72 NNW 6 9 30.4 1030 10 16.0934 0 0
3:15 am 03:15 Clear 27 -3 19 -7.5 71 71 NNW 6 9 30.41 1030 10 16.0934 0 0
3:35 am 03:35 Partly Cloudy 25 -3.7 18 -7.6 75 75 NW 6 9 30.4 1030 10 16.0934 0 0
3:55 am 03:55 Clear 25 -4.1 18 -7.6 77 77 NW 7 11 30.41 1030 10 16.0934 0 0
4:15 am 04:15 Clear 26 -3.5 18 -7.7 73 73 NNW 7 11 30.4 1029 10 16.0934 0 0
4:35 am 04:35 Clear 25 -3.7 17 -8.1 72 72 NNW 7 11 30.4 1030 10 16.0934 0 0
4:55 am 04:55 Clear 23 -5.1 17 -8.6 77 77 NW 7 11 30.42 1030 10 16.0934 0 0
5:15 am 05:15 Clear 22 -5.5 17 -8.5 80 80 NW 7 11 30.42 1030 10 16.0934 0 0
5:35 am 05:35 Clear 21 -5.9 16 -9 79 79 NW 6 9 30.42 1030 10 16.0934 0 0
5:55 am 05:55 Clear 21 -6 16 -9 80 80 WNW 6 9 30.42 1030 10 16.0934 0 0
6:15 am 06:15 Clear 20 -6.7 15 -9.6 80 80 NW 9 15 30.42 1030 10 16.0934 0 0
6:35 am 06:35 Clear 22 -5.5 16 -8.9 77 77 WNW 6 9 30.41 1030 10 16.0934 0 0
6:55 am 06:55 Clear 21 -5.9 15 -9.3 77 77 WNW 5 7 30.41 1030 10 16.0934 0 0
7:15 am 07:15 Clear 21 -5.9 15 -9.2 78 78 W 7 11 30.41 1030 10 16.0934 0 0
7:35 am 07:35 Clear 22 -5.4 15 -9.3 74 74 W 5 7 30.42 1030 10 16.0934 0 0
7:55 am 07:55 Sunny 20 -6.4 15 -9.7 78 78 W 6 9 30.44 1031 10 16.0934 0 0
8:15 am 08:15 Sunny 22 -5.8 16 -9 78 78 W 6 9 30.44 1031 10 16.0934 0 0
8:35 am 08:35 Sunny 25 -4 18 -7.7 76 76 W 7 11 30.42 1030 10 16.0934 0 0
8:55 am 08:55 Sunny 25 -3.7 18 -7.8 74 74 WSW 3 6 30.42 1030 10 16.0934 0 0
9:15 am 09:15 Sunny 27 -2.8 19 -7.3 71 71 WSW 7 11 30.41 1030 10 16.0934 0 0
9:35 am 09:35 Sunny 30 -1.3 20 -6.8 67 67 WSW 9 15 30.4 1029 10 16.0934 0 0
9:55 am 09:55 Sunny 31 -0.7 21 -6.3 66 66 W 8 13 30.39 1029 10 16.0934 0 0
10:15 am 10:15 Sunny 33 0.4 21 -6.2 62 62 W 16 26 30.37 1029 10 16.0934 0 0
10:35 am 10:35 Sunny 34 1.2 21 -5.9 60 60 W 16 26 30.36 1028 10 16.0934 0 0
10:55 am 10:55 Sunny 36 2 21 -6.2 55 55 W 16 26 30.35 1028 10 16.0934 0 0
11:15 am 11:15 Sunny 37 2.5 19 -7.2 49 49 W 16 26 30.33 1027 10 16.0934 0 0
11:35 am 11:35 Sunny 38 3.2 18 -7.9 44 44 W 14 22 30.32 1027 10 16.0934 0 0
11:55 am 11:55 Sunny 38 3.6 18 -7.7 44 44 WSW 13 20 30.29 1026 10 16.0934 0 0
12:15 pm 12:15 Sunny 39 4 18 -7.6 43 43 W 17 28 30.28 1025 10 16.0934 0 0
12:35 pm 12:35 Sunny 40 4.2 20 -6.6 46 46 WSW 15 24 30.26 1025 10 16.0934 0 0
12:55 pm 12:55 Sunny 40 4.7 18 -7.6 41 41 WSW 16 26 30.24 1024 10 16.0934 0 0
1:15 pm 13:15 Sunny 42 5.4 18 -8 38 38 WSW 13 20 30.21 1023 10 16.0934 0 0
1:35 pm 13:35 Sunny 42 5.4 16 -9.1 35 35 W 14 22 30.19 1023 10 16.0934 0 0
1:55 pm 13:55 Sunny 43 6 16 -8.8 34 34 WSW 10 17 30.18 1022 10 16.0934 0 0
2:15 pm 14:15 Sunny 43 6.2 16 -8.8 34 34 WSW 13 20 30.16 1021 10 16.0934 0 0
2:35 pm 14:35 Sunny 43 6.2 16 -9 33 33 WSW 13 20 30.14 1021 10 16.0934 0 0
2:55 pm 14:55 Sunny 44 6.5 15 -9.2 32 32 WSW 14 22 30.12 1020 10 16.0934 0 0
3:15 pm 15:15 Sunny 44 6.5 16 -8.7 33 33 WSW 15 24 30.11 1020 10 16.0934 0 0
3:35 pm 15:35 Sunny 44 6.6 17 -8.4 34 34 SW 12 19 30.1 1019 10 16.0934 0 0
3:55 pm 15:55 Sunny 44 6.6 16 -8.7 33 33 SW 10 17 30.09 1019 10 16.0934 0 0
4:15 pm 16:15 Sunny 44 6.6 16 -9 32 32 SW 13 20 30.08 1019 10 16.0934 0 0
4:35 pm 16:35 Sunny 44 6.6 15 -9.2 32 32 SW 14 22 30.07 1018 10 16.0934 0 0
4:55 pm 16:55 Sunny 43 6.2 15 -9.2 33 33 SW 16 26 30.07 1018 10 16.0934 0 0
5:15 pm 17:15 Sunny 42 5.8 16 -9.1 34 34 SW 13 20 30.06 1018 10 16.0934 0 0
5:35 pm 17:35 Sunny 42 5.3 16 -8.7 36 36 SSW 10 17 30.06 1018 10 16.0934 0 0
5:55 pm 17:55 Sunny 40 4.5 17 -8.6 38 38 SSW 12 19 30.05 1018 10 16.0934 0 0
6:15 pm 18:15 Clear 38 3.4 18 -8 43 43 SSW 13 20 30.06 1018 10 16.0934 0 0
6:35 pm 18:35 Clear 37 2.5 18 -8 46 46 SSW 12 19 30.06 1018 10 16.0934 0 0
6:55 pm 18:55 Clear 36 2 18 -8 48 48 S 10 17 30.07 1018 10 16.0934 0 0
7:15 pm 19:15 Clear 34 1.3 18 -7.6 52 52 S 9 15 30.06 1018 10 16.0934 0 0
7:35 pm 19:35 Clear 34 0.9 19 -7.5 54 54 S 8 13 30.07 1018 10 16.0934 0 0
7:55 pm 19:55 Clear 32 0.2 19 -7.5 57 57 S 12 19 30.06 1018 10 16.0934 0 0
8:15 pm 20:15 Clear 33 0.5 19 -7.4 56 56 SSW 12 19 30.06 1018 10 16.0934 0 0
8:35 pm 20:35 Clear 32 0.1 19 -7 59 59 SSW 10 17 30.06 1018 10 16.0934 0 0
8:55 pm 20:55 Clear 32 -0.2 20 -6.5 63 63 SW 8 13 30.07 1018 10 16.0934 0 0
9:15 pm 21:15 Clear 30 -1 21 -6.2 68 68 SW 8 13 30.07 1018 10 16.0934 0 0
9:35 pm 21:35 Clear 30 -1 22 -5.8 70 70 SW 9 15 30.07 1018 10 16.0934 0 0
9:55 pm 21:55 Clear 30 -1 23 -5.1 74 74 SW 8 13 30.07 1018 10 16.0934 0 0
10:15 pm 22:15 Clear 31 -0.4 24 -4.2 76 76 SW 13 20 30.06 1018 10 16.0934 0 0
10:35 pm 22:35 Clear 32 0 25 -4 75 75 SW 13 20 30.04 1017 10 16.0934 0 0
10:55 pm 22:55 Clear 32 -0.2 25 -4 76 76 SW 10 17 30.04 1017 10 16.0934 0 0
11:15 pm 23:15 Clear 32 -0.2 25 -4 76 76 SW 9 15 30.03 1017 10 16.0934 0 0
11:35 pm 23:35 Clear 31 -0.7 25 -4.1 78 78 SW 10 17 30.03 1017 10 16.0934 0 0
11:55 pm 23:55 Clear 30 -1.1 24 -4.3 79 79 SW 8 13 30.03 1017 10 16.0934 0 0

Powered by AerisWeather